Wind_Speed
37 38 37 33 30 29 26 26 22 20 18 17 14 11 11 11 11 11 11 11 9 10 11 12 13 14 15 17 19 22 22 21 20 20 19 14 11 6 4 6 5 10 9 6 4 4 7
38 38 38 36 33 31 29 28 25 23 20 18 17 16 13 12 9 7 9 8 7 4 4 4 5 7 9 10 13 15 17 18 18 17 18 17 11 6 2 8 10 10 11 11 11 9 7
42 39 39 38 36 34 31 30 28 26 24 21 19 18 17 15 12 10 10 9 5 4 3 3 3 4 5 7 9 9 8 10 13 15 14 15 15 13 12 5 10 12 17 14 14 12 9
47 44 41 41 39 37 35 34 32 31 28 26 23 22 21 18 16 14 12 10 9 8 7 6 8 7 8 9 7 8 9 10 11 14 17 16 15 16 15 11 10 8 5 17 20 17 14
49 49 47 44 43 41 39 38 37 35 33 30 28 26 25 23 21 18 16 15 14 12 11 12 12 13 13 13 13 13 13 14 14 15 18 18 18 19 13 11 13 15 12 9 16 22 23
53 51 50 49 47 45 43 41 40 40 37 35 33 31 29 27 26 24 21 19 19 17 16 16 18 18 17 17 18 18 19 19 18 18 21 22 23 25 22 23 19 12 15 9 19 24 21
57 56 54 53 51 49 48 46 44 43 41 40 37 35 34 32 31 29 26 23 23 23 22 21 23 24 24 23 23 24 24 23 24 23 25 26 30 31 30 32 29 20 14 17 19 16 20
60 61 59 57 56 54 52 51 49 47 45 44 43 40 38 37 35 34 32 29 27 28 28 27 28 28 29 29 29 28 29 30 31 32 33 32 34 34 29 36 30 24 20 12 15 13 32
64 64 65 63 62 60 58 56 54 52 50 48 47 45 44 43 41 39 37 35 34 33 32 33 33 32 32 34 34 33 35 35 35 37 39 40 38 39 39 38 33 28 23 18 18 22 22
67 68 66 68 67 65 63 61 59 57 55 53 51 51 49 47 46 44 43 41 39 39 38 37 36 37 38 37 38 39 38 40 41 42 42 43 44 44 45 41 39 32 30 22 23 19 19
70 71 72 73 71 70 68 66 64 62 61 59 57 56 55 53 51 50 48 47 46 45 44 38 41 43 40 42 41 44 43 44 45 46 47 47 48 47 45 47 42 36 36 27 21 17 16
72 73 73 75 76 75 74 71 70 68 66 64 62 61 60 59 58 57 55 54 52 52 52 45 47 47 46 46 45 47 47 49 50 50 50 51 51 53 51 50 47 39 36 28 20 18 19
72 74 75 75 76 79 77 77 76 73 72 70 68 66 64 63 62 61 61 59 57 57 55 54 53 53 51 50 50 51 52 53 53 53 54 56 56 58 54 56 50 44 34 25 22 20 23
71 74 76 77 78 77 81 81 79 77 76 74 73 71 69 66 64 64 64 61 61 63 63 61 57 58 56 57 57 57 56 56 56 57 58 60 61 61 60 58 49 42 33 23 22 17 31
70 71 75 76 78 80 78 80 82 82 79 78 77 75 73 72 70 68 67 64 65 66 66 66 65 64 64 63 63 61 60 59 61 62 63 64 65 65 64 56 49 39 32 23 21 28 35
62 69 72 73 77 78 80 79 79 82 83 82 82 81 80 79 76 73 70 68 69 68 65 67 67 67 68 67 66 67 67 67 67 67 69 70 70 70 68 60 48 38 29 24 25 27 34
59 62 65 70 73 75 76 80 80 81 81 81 82 84 84 83 82 78 77 79 78 74 75 73 72 73 73 74 73 75 74 74 73 74 75 74 73 73 63 57 47 38 31 25 23 27 27
45 55 64 65 66 69 72 74 76 78 79 80 82 82 83 82 82 83 85 85 84 81 80 81 81 80 80 79 79 78 77 79 79 79 79 77 77 66 59 51 43 34 30 26 23 27 30
36 45 55 66 67 66 66 68 69 71 75 76 77 78 78 80 79 81 83 85 86 87 86 88 86 86 87 85 84 85 85 88 80 82 79 72 66 58 50 44 39 34 28 26 25 28 31
27 34 44 55 65 69 68 65 64 64 65 68 73 74 76 74 75 75 73 74 77 78 79 80 79 79 77 77 79 78 78 81 72 72 65 63 55 49 43 39 38 32 28 26 27 29 30
22 23 29 37 47 59 67 70 67 65 63 62 60 64 65 70 76 73 72 71 71 70 68 69 65 66 66 66 68 66 66 68 57 58 55 51 47 44 40 37 34 34 26 29 31 33 34
20 17 18 23 30 38 50 59 66 67 63 58 57 55 53 64 65 69 72 71 70 70 69 67 66 66 65 62 62 60 59 60 53 45 48 48 43 42 37 39 37 35 32 34 36 35 37
17 14 16 16 22 24 32 40 46 53 58 56 56 54 54 53 57 62 64 63 64 65 63 63 61 66 66 66 62 59 59 57 56 41 40 53 49 46 38 41 40 33 26 28 36 40 42
20 16 13 14 14 18 20 25 33 41 46 53 52 52 53 53 53 57 59 58 59 61 61 60 61 61 63 63 62 62 63 61 61 54 50 14 58 55 46 49 44 35 30 12 50 47 47
28 22 20 17 16 13 13 17 21 34 41 45 48 51 53 54 51 52 51 58 61 60 59 60 59 57 55 60 62 60 61 61 58 58 56 57 62 58 55 55 50 49 50 45 51 40 48
29 27 26 27 20 19 17 13 13 20 27 34 42 47 51 54 51 52 55 57 59 61 61 60 60 54 58 56 58 57 57 60 59 61 58 59 61 59 59 55 53 57 64 52 52 48 55
30 29 28 25 25 24 22 21 21 20 20 24 30 37 42 46 47 55 55 58 59 63 64 65 63 58 63 63 61 60 59 59 58 59 57 60 62 58 60 57 56 65 63 57 54 60 64
31 30 31 30 30 31 30 28 28 27 27 28 28 30 33 37 44 51 54 57 59 63 66 62 64 65 69 67 66 66 65 66 67 64 67 59 61 54 55 63 64 67 63 60 60 61 65
31 33 34 34 33 34 36 36 34 34 33 33 34 35 36 36 38 40 44 50 56 60 66 64 67 68 71 71 72 72 73 72 73 67 72 68 65 59 40 44 70 65 63 62 64 64 63
Wind_Direction
182 182 184 184 185 186 185 181 183 187 188 181 175 173 161 149 137 129 122 115 101 94 91 85 79 73 71 72 76 76 73 74 73 65 65 75 107 141 129 127 187 178 192 206 220 240 262
191 187 187 189 191 193 192 190 189 194 195 195 190 186 186 180 175 166 154 148 145 131 123 101 78 70 70 63 68 64 67 66 61 55 48 53 53 57 206 220 242 234 222 210 208 224 234
194 197 194 193 195 196 198 199 199 201 203 203 205 207 203 204 207 204 195 183 216 241 238 278 319 351 1 22 37 30 34 41 39 43 48 40 33 13 17 316 265 254 247 246 241 227 229
200 200 201 199 200 201 203 206 207 207 209 214 218 221 222 223 220 222 227 228 237 252 269 297 306 304 325 336 345 350 350 355 10 10 7 14 14 12 5 341 317 283 259 256 256 250 244
207 205 205 204 205 207 209 211 213 217 220 222 224 226 230 234 235 236 239 248 252 260 272 280 285 295 304 307 314 325 332 337 333 339 346 350 353 3 15 341 312 292 258 295 316 268 254
214 212 212 210 209 210 213 216 218 220 223 225 227 230 232 238 241 241 242 248 257 264 269 276 284 294 295 299 305 312 319 317 318 324 330 333 336 339 339 338 344 304 272 225 236 263 254
219 219 216 216 216 216 216 218 221 223 226 228 232 236 237 238 242 248 250 251 257 267 274 279 284 288 291 295 297 302 308 311 314 317 322 324 328 334 332 333 333 334 303 281 256 267 274
222 222 222 221 220 220 221 222 224 226 228 229 232 236 239 241 242 247 251 255 257 261 270 275 280 284 288 292 297 303 308 311 316 319 319 322 332 334 329 328 330 330 326 289 268 194 229
225 224 224 225 224 224 225 224 226 228 229 231 234 237 240 243 245 248 252 256 258 260 266 271 279 284 288 292 297 303 307 309 312 314 317 321 325 327 331 335 330 326 313 302 273 248 242
227 226 227 227 227 227 228 229 229 229 232 234 236 238 241 244 246 248 251 254 258 261 264 268 274 279 283 288 292 297 301 302 305 308 311 315 319 323 328 327 327 325 314 304 280 264 251
228 227 229 229 230 230 230 231 232 232 233 235 236 238 241 243 246 248 251 254 257 260 263 265 268 274 279 283 289 293 296 299 301 303 307 310 314 318 322 324 324 319 315 302 288 261 239
231 231 231 231 231 231 232 232 233 234 236 237 238 239 241 243 245 247 249 253 256 259 262 262 263 269 274 279 283 287 290 292 296 298 301 305 309 313 316 317 319 314 311 300 278 248 206
234 234 233 234 234 233 233 234 235 236 237 238 238 239 241 243 245 246 249 251 254 257 262 262 264 267 272 274 277 281 284 288 291 293 297 300 303 308 311 314 315 311 304 296 272 243 226
236 236 236 236 235 236 235 237 237 238 238 240 240 241 242 242 244 247 249 251 254 255 259 263 264 267 269 270 274 278 281 284 287 290 292 295 300 304 307 311 312 307 300 283 258 230 224
239 239 238 238 238 238 237 237 239 240 240 242 244 244 244 245 245 247 249 250 252 255 257 260 261 263 266 269 272 275 277 280 284 287 290 293 297 301 304 308 306 301 292 275 244 234 223
243 242 241 240 240 240 240 240 240 240 241 242 244 245 245 247 248 248 249 250 253 256 259 260 262 264 266 269 271 273 276 278 280 283 286 290 294 298 301 302 302 295 280 261 243 234 219
248 243 242 242 241 241 242 242 242 243 243 243 244 245 247 248 250 252 251 251 253 255 256 259 261 263 265 268 269 273 275 277 279 282 286 289 293 296 297 298 296 288 274 258 245 237 230
254 246 242 241 241 240 241 243 243 244 244 245 246 246 247 248 249 250 251 252 255 257 258 260 262 264 265 267 270 272 273 276 278 282 284 287 290 291 292 293 288 280 267 254 245 239 227
260 248 242 239 239 240 240 240 241 243 245 246 246 247 248 249 251 250 250 252 255 257 259 261 263 264 265 267 269 271 273 274 278 278 282 284 286 286 287 284 278 270 263 256 248 244 236
282 256 246 242 238 239 240 240 241 242 243 245 246 246 247 249 250 251 252 253 254 255 257 259 261 263 265 266 267 268 271 273 275 276 280 280 281 281 278 274 270 271 260 251 246 245 240
316 278 258 250 246 243 241 240 240 240 243 244 247 249 250 249 249 251 252 252 254 255 255 257 259 260 261 262 264 267 268 271 272 274 275 275 273 272 269 265 265 260 255 261 250 247 239
322 322 281 263 255 251 247 244 241 241 243 244 245 248 245 247 247 248 250 252 253 254 254 255 255 258 258 259 260 262 264 268 273 271 271 269 267 265 264 262 257 254 251 251 257 254 248
313 324 329 291 263 261 254 248 244 241 241 240 243 244 246 249 248 247 248 249 251 254 255 254 254 254 255 256 259 260 261 260 261 256 261 270 268 265 261 262 259 257 261 267 267 262 256
300 303 320 319 313 271 261 253 238 231 233 235 240 243 247 248 248 248 249 251 253 254 255 255 254 255 255 257 256 255 256 258 259 258 255 274 270 263 259 257 258 254 243 242 257 265 262
286 290 295 304 309 310 296 261 248 237 235 237 240 243 245 248 250 249 251 251 250 254 256 257 254 256 259 256 257 257 259 259 261 259 256 249 252 258 258 257 257 255 249 225 235 252 274
280 281 288 286 291 297 291 283 269 254 247 246 247 248 250 251 252 250 250 252 253 254 256 257 257 253 255 254 255 256 258 259 257 258 257 256 256 258 256 257 258 257 254 249 249 241 239
268 269 278 282 279 287 284 281 274 268 262 257 254 254 254 254 253 252 252 251 252 253 253 253 256 257 255 256 255 256 256 257 258 258 259 258 259 260 260 256 254 250 254 254 244 237 249
262 264 268 272 270 274 279 274 271 271 270 267 266 263 260 257 255 255 254 255 255 256 256 257 254 252 254 255 257 257 256 256 255 257 259 260 260 259 264 263 252 254 254 255 255 251 252
258 264 263 264 265 269 273 275 274 269 271 274 270 268 267 265 262 260 259 258 255 256 256 256 256 253 255 257 256 257 257 257 257 257 259 258 257 255 249 242 259 256 257 255 253 253 253
Height
10970 10974 10977 10981 10984 10987 10990 10993 10995 10998 11000 11003 11004 11006 11007 11009 11012 11014 11015 11016 11016 11017 11018 11019 11020 11020 11021 11022 11022 11023 11024 11024 11025 11024 11024 11028 11029 11028 11027 11026 11021 11020 11020 11020 11020 11019 11019
10969 10973 10976 10980 10983 10987 10990 10993 10995 10998 11000 11003 11005 11007 11008 11010 11011 11013 11016 11017 11018 11019 11020 11021 11022 11023 11024 11025 11024 11025 11026 11027 11028 11028 11027 11028 11028 11029 11029 11027 11024 11024 11022 11019 11018 11018 11018
10966 10971 10974 10978 10981 10985 10989 10992 10995 10997 11000 11002 11004 11007 11009 11011 11012 11013 11016 11018 11019 11020 11021 11021 11022 11022 11023 11024 11025 11026 11026 11027 11028 11029 11030 11029 11028 11026 11028 11024 11024 11023 11023 11021 11019 11017 11016
10963 10967 10971 10975 10979 10982 10986 10989 10992 10995 10998 11001 11003 11005 11008 11010 11012 11014 11014 11017 11019 11019 11019 11020 11020 11022 11022 11023 11024 11026 11026 11026 11027 11027 11027 11027 11027 11027 11024 11022 11021 11019 11018 11017 11015 11015 11014
10959 10963 10967 10971 10975 10979 10982 10985 10989 10992 10996 10999 11001 11004 11005 11007 11010 11012 11014 11014 11017 11018 11018 11019 11019 11020 11021 11021 11022 11023 11024 11024 11025 11025 11025 11025 11025 11024 11025 11023 11020 11018 11016 11017 11014 11013 11012
10954 10959 10963 10966 10970 10974 10977 10981 10984 10988 10991 10995 10997 11001 11003 11005 11006 11008 11011 11013 11013 11015 11015 11016 11017 11017 11019 11019 11019 11019 11020 11021 11021 11022 11022 11022 11022 11020 11020 11017 11018 11017 11014 11014 11007 11008 11009
10948 10953 10956 10961 10965 10969 10972 10975 10979 10982 10986 10990 10992 10995 10999 11002 11003 11004 11006 11009 11010 11010 11011 11013 11013 11014 11015 11015 11016 11017 11017 11017 11017 11018 11018 11017 11016 11015 11012 11010 11009 11010 11010 11007 11009 11008 11008
10941 10945 10950 10954 10958 10962 10966 10970 10973 10977 10980 10984 10987 10989 10992 10995 10998 11000 11001 11003 11005 11006 11007 11008 11009 11010 11011 11011 11012 11012 11012 11012 11011 11011 11011 11012 11011 11010 11009 11007 11003 11002 11001 11002 11004 11008 11000
10932 10936 10941 10945 10950 10954 10958 10962 10966 10969 10973 10977 10980 10983 10986 10989 10992 10994 10996 10997 10999 11001 11003 11003 11003 11004 11005 11005 11006 11007 11007 11007 11006 11006 11005 11004 11005 11004 11004 11000 10997 10997 10996 10995 10995 10997 10999
10921 10926 10931 10936 10940 10945 10949 10954 10958 10961 10965 10969 10972 10975 10978 10981 10984 10987 10989 10991 10993 10994 10996 10998 10998 10997 10998 11000 11000 11001 11002 11002 11002 11001 11001 11000 10997 10996 10995 10994 10993 10991 10989 10989 10986 10990 10992
10910 10915 10920 10925 10930 10935 10939 10944 10948 10952 10956 10960 10963 10967 10970 10973 10976 10979 10981 10983 10985 10986 10989 10994 10991 10991 10993 10993 10995 10995 10996 10996 10995 10995 10994 10994 10993 10993 10992 10988 10986 10987 10983 10982 10981 10983 10986
10897 10903 10907 10912 10918 10923 10928 10933 10937 10941 10946 10950 10954 10957 10961 10964 10967 10970 10972 10975 10977 10978 10979 10985 10984 10984 10986 10987 10988 10987 10988 10988 10988 10988 10987 10986 10986 10985 10985 10983 10981 10979 10977 10975 10976 10976 10981
10884 10889 10894 10899 10905 10910 10915 10921 10926 10930 10934 10938 10942 10946 10951 10954 10957 10960 10963 10967 10969 10968 10972 10974 10976 10976 10978 10979 10980 10979 10981 10981 10980 10979 10979 10978 10977 10977 10978 10976 10975 10971 10969 10969 10968 10969 10973
10870 10875 10879 10885 10890 10896 10902 10907 10912 10918 10923 10927 10931 10935 10939 10943 10947 10949 10954 10958 10959 10959 10961 10963 10967 10967 10969 10969 10970 10971 10971 10972 10971 10970 10970 10969 10969 10969 10969 10968 10967 10963 10962 10962 10961 10966 10964
10855 10859 10864 10869 10875 10881 10887 10893 10899 10904 10910 10914 10918 10922 10927 10931 10936 10939 10943 10948 10945 10947 10950 10952 10954 10956 10957 10959 10959 10960 10961 10962 10961 10961 10960 10959 10960 10958 10958 10959 10957 10956 10953 10955 10956 10953 10958
10840 10845 10849 10855 10860 10865 10871 10878 10884 10889 10894 10900 10903 10908 10914 10917 10923 10928 10934 10934 10933 10936 10941 10941 10942 10945 10945 10946 10949 10949 10950 10951 10951 10950 10949 10949 10950 10949 10948 10946 10947 10946 10947 10947 10948 10950 10952
10824 10828 10833 10838 10843 10849 10855 10861 10867 10872 10878 10884 10887 10892 10900 10903 10908 10916 10920 10917 10920 10926 10926 10929 10930 10931 10933 10932 10936 10936 10938 10938 10939 10938 10938 10938 10939 10938 10938 10936 10935 10936 10936 10938 10941 10943 10947
10808 10810 10815 10821 10826 10832 10838 10844 10849 10854 10859 10866 10870 10876 10881 10887 10893 10898 10904 10900 10904 10911 10912 10913 10915 10919 10918 10920 10920 10922 10923 10922 10926 10927 10925 10926 10927 10927 10927 10925 10924 10926 10927 10929 10932 10933 10936
10793 10794 10797 10803 10809 10815 10821 10827 10832 10837 10841 10848 10852 10861 10863 10867 10875 10879 10882 10886 10889 10894 10897 10897 10902 10904 10903 10906 10907 10906 10907 10903 10917 10911 10914 10914 10915 10914 10916 10915 10914 10916 10920 10921 10923 10924 10927
10783 10782 10783 10786 10791 10797 10804 10810 10816 10821 10824 10829 10834 10842 10841 10853 10855 10860 10866 10868 10870 10876 10880 10880 10884 10886 10889 10890 10888 10891 10892 10886 10901 10897 10903 10900 10902 10903 10904 10904 10902 10906 10909 10911 10913 10915 10917
10777 10774 10774 10775 10777 10781 10786 10792 10799 10804 10809 10815 10818 10821 10835 10838 10835 10843 10848 10850 10855 10859 10863 10863 10868 10869 10871 10873 10872 10877 10877 10873 10889 10886 10888 10889 10891 10892 10893 10894 10895 10896 10901 10901 10903 10905 10906
10775 10770 10768 10767 10768 10769 10771 10775 10782 10789 10795 10801 10807 10809 10815 10810 10822 10824 10826 10832 10837 10840 10845 10849 10853 10853 10855 10860 10859 10862 10864 10864 10871 10879 10878 10876 10880 10880 10884 10883 10885 10887 10893 10896 10896 10895 10895
10773 10769 10765 10762 10761 10761 10761 10763 10767 10773 10780 10786 10791 10796 10798 10802 10804 10807 10811 10817 10821 10823 10828 10833 10839 10837 10839 10840 10849 10851 10850 10854 10855 10875 10874 10870 10868 10869 10874 10871 10873 10882 10887 10884 10886 10889 10886
10767 10766 10764 10761 10757 10755 10754 10754 10757 10761 10767 10773 10778 10782 10786 10788 10789 10793 10798 10805 10807 10808 10812 10818 10820 10824 10824 10829 10832 10832 10832 10837 10838 10851 10862 10872 10848 10856 10860 10857 10864 10873 10873 10873 10871 10876 10877
10760 10759 10758 10757 10755 10753 10751 10750 10751 10754 10758 10762 10766 10769 10772 10773 10779 10781 10789 10789 10789 10793 10799 10797 10804 10809 10816 10811 10813 10818 10819 10821 10828 10829 10835 10845 10843 10840 10842 10845 10853 10856 10857 10865 10863 10870 10861
10753 10753 10752 10751 10751 10750 10749 10748 10748 10749 10751 10753 10755 10757 10759 10761 10769 10767 10769 10772 10776 10779 10782 10784 10787 10797 10793 10798 10798 10804 10806 10806 10810 10810 10816 10817 10818 10822 10826 10832 10837 10835 10829 10849 10850 10858 10846
10745 10746 10746 10745 10744 10745 10744 10744 10744 10744 10745 10745 10746 10746 10747 10748 10754 10750 10757 10756 10760 10760 10763 10766 10773 10782 10777 10779 10784 10787 10790 10790 10793 10792 10797 10798 10800 10809 10809 10817 10818 10804 10815 10829 10830 10829 10830
10736 10736 10737 10737 10737 10736 10737 10737 10737 10736 10736 10736 10737 10737 10736 10737 10738 10739 10741 10742 10744 10744 10744 10755 10755 10756 10754 10762 10766 10769 10772 10773 10773 10780 10775 10786 10785 10795 10795 10793 10792 10793 10802 10810 10810 10813 10812
10727 10727 10727 10728 10727 10727 10727 10727 10727 10727 10726 10726 10726 10725 10725 10725 10725 10726 10726 10727 10726 10727 10727 10733 10733 10736 10739 10744 10744 10749 10750 10754 10754 10766 10759 10767 10770 10782 10794 10779 10771 10780 10783 10788 10788 10789 10790